TimeEDT,TemperatureF,Dew PointF,Humidity,Sea Level PressureIn,VisibilityMPH,Wind Direction,Wind SpeedMPH,Gust SpeedMPH,PrecipitationIn,Events,Conditions,WindDirDegrees,DateUTC
12:53 AM,75.9,72.0,87,30.00,10.0,West,6.9,-,N/A,,Clear,260,2013-05-24 04:53:00
1:53 AM,75.0,71.1,87,29.99,10.0,SW,5.8,-,N/A,,Clear,220,2013-05-24 05:53:00
2:53 AM,75.0,71.1,87,29.98,10.0,WSW,4.6,-,N/A,,Clear,250,2013-05-24 06:53:00
3:53 AM,71.1,70.0,96,29.97,10.0,West,3.5,-,N/A,,Clear,270,2013-05-24 07:53:00
4:53 AM,73.0,71.1,93,29.99,10.0,SW,4.6,-,N/A,,Clear,220,2013-05-24 08:53:00
5:53 AM,73.0,71.1,93,29.99,10.0,WSW,5.8,-,N/A,,Clear,240,2013-05-24 09:53:00
6:53 AM,72.0,71.1,97,30.02,9.0,WSW,3.5,-,N/A,,Clear,250,2013-05-24 10:53:00
7:53 AM,75.0,73.0,94,30.03,10.0,West,4.6,-,N/A,,Clear,270,2013-05-24 11:53:00
8:53 AM,79.0,73.0,82,30.05,10.0,West,4.6,-,N/A,,Clear,270,2013-05-24 12:53:00
9:53 AM,82.9,72.0,69,30.05,10.0,NW,5.8,-,N/A,,Clear,310,2013-05-24 13:53:00
10:53 AM,86.0,72.0,63,30.05,10.0,NW,8.1,-,N/A,,Clear,310,2013-05-24 14:53:00
11:43 AM,-9999,-9999,N/A,-9999,-9999.0,NW,8.1,-,N/A,,Unknown,310,2013-05-24 15:43:00
11:53 AM,89.1,73.0,59,30.06,10.0,NW,9.2,-,N/A,,Unknown,320,2013-05-24 15:53:00
12:53 PM,89.1,70.0,53,30.04,10.0,NW,8.1,-,N/A,,Scattered Clouds,320,2013-05-24 16:53:00
1:53 PM,91.9,66.9,44,30.03,10.0,West,9.2,-,N/A,,Clear,280,2013-05-24 17:53:00
2:53 PM,93.0,63.0,37,30.02,10.0,Variable,3.5,-,N/A,,Scattered Clouds,0,2013-05-24 18:53:00
3:53 PM,90.0,72.0,55,30.01,10.0,East,8.1,-,N/A,,Mostly Cloudy,100,2013-05-24 19:53:00
4:53 PM,87.1,71.1,59,30.01,10.0,ESE,10.4,-,N/A,,Clear,110,2013-05-24 20:53:00
5:53 PM,87.1,72.0,61,30.00,10.0,ESE,11.5,-,N/A,,Clear,120,2013-05-24 21:53:00
6:53 PM,82.0,70.0,67,30.07,10.0,NNE,31.1,40.3,N/A,,Mostly Cloudy,20,2013-05-24 22:53:00
7:00 PM,75.2,62.6,65,30.08,10.0,NE,16.1,40.3,N/A,,Mostly Cloudy,40,2013-05-24 23:00:00
7:53 PM,75.0,63.0,66,30.02,10.0,NE,6.9,-,0.02,,Scattered Clouds,40,2013-05-24 23:53:00
8:53 PM,75.9,68.0,76,30.05,10.0,SE,4.6,-,N/A,,Clear,140,2013-05-25 00:53:00
9:53 PM,73.0,66.0,79,30.06,10.0,SW,5.8,-,N/A,,Clear,230,2013-05-25 01:53:00
10:53 PM,73.0,66.0,79,30.07,10.0,Calm,Calm,-,N/A,,Clear,0,2013-05-25 02:53:00
11:53 PM,71.1,66.0,84,30.07,10.0,Calm,Calm,-,N/A,,Clear,0,2013-05-25 03:53:00